TimeEST,TemperatureF,Dew PointF,Humidity,Sea Level PressureIn,VisibilityMPH,Wind Direction,Wind SpeedMPH,Gust SpeedMPH,PrecipitationIn,Events,Conditions,WindDirDegrees,DateUTC
12:54 AM,39.9,28.9,65,30.29,10.0,NNE,5.8,-,N/A,,Clear,20,2012-12-06 05:54:00
1:54 AM,37.9,27.0,65,30.31,10.0,Variable,4.6,-,N/A,,Clear,0,2012-12-06 06:54:00
2:54 AM,37.0,26.1,65,30.32,10.0,Variable,3.5,-,N/A,,Clear,0,2012-12-06 07:54:00
3:54 AM,34.0,24.1,67,30.32,10.0,Variable,3.5,-,N/A,,Clear,0,2012-12-06 08:54:00
4:54 AM,30.9,25.0,79,30.34,10.0,Calm,Calm,-,N/A,,Clear,0,2012-12-06 09:54:00
5:54 AM,28.9,26.1,89,30.35,10.0,Calm,Calm,-,N/A,,Clear,0,2012-12-06 10:54:00
6:54 AM,27.0,25.0,92,30.37,10.0,Calm,Calm,-,N/A,,Clear,0,2012-12-06 11:54:00
7:54 AM,28.0,25.0,88,30.39,10.0,Calm,Calm,-,N/A,,Clear,0,2012-12-06 12:54:00
8:54 AM,37.0,25.0,62,30.40,10.0,Variable,3.5,-,N/A,,Clear,0,2012-12-06 13:54:00
9:54 AM,39.0,24.1,55,30.40,10.0,NE,5.8,-,N/A,,Clear,40,2012-12-06 14:54:00
10:54 AM,39.9,25.0,55,30.40,10.0,Calm,Calm,-,N/A,,Clear,0,2012-12-06 15:54:00
11:54 AM,42.1,25.0,51,30.36,10.0,Calm,Calm,-,N/A,,Clear,0,2012-12-06 16:54:00
12:54 PM,44.1,25.0,47,30.33,10.0,Calm,Calm,-,N/A,,Clear,0,2012-12-06 17:54:00
1:54 PM,45.0,25.0,46,30.31,10.0,Calm,Calm,-,N/A,,Clear,0,2012-12-06 18:54:00
2:54 PM,45.0,25.0,46,30.30,10.0,Calm,Calm,-,N/A,,Clear,0,2012-12-06 19:54:00
3:54 PM,45.0,26.1,48,30.30,10.0,Calm,Calm,-,N/A,,Clear,0,2012-12-06 20:54:00
4:54 PM,39.9,30.0,68,30.30,10.0,Calm,Calm,-,N/A,,Clear,0,2012-12-06 21:54:00
5:54 PM,35.1,28.9,78,30.29,10.0,Calm,Calm,-,N/A,,Clear,0,2012-12-06 22:54:00
6:54 PM,32.0,28.0,85,30.30,10.0,Calm,Calm,-,N/A,,Clear,0,2012-12-06 23:54:00
7:54 PM,32.0,28.0,85,30.30,10.0,Calm,Calm,-,N/A,,Clear,0,2012-12-07 00:54:00
8:54 PM,30.9,28.0,89,30.30,10.0,Calm,Calm,-,N/A,,Clear,0,2012-12-07 01:54:00
9:54 PM,32.0,28.9,88,30.29,10.0,ESE,3.5,-,N/A,,Clear,120,2012-12-07 02:54:00
10:54 PM,36.0,32.0,86,30.29,10.0,Calm,Calm,-,N/A,,Overcast,0,2012-12-07 03:54:00
11:54 PM,34.0,32.0,92,30.27,10.0,Calm,Calm,-,N/A,,Scattered Clouds,0,2012-12-07 04:54:00